Location: La Fredeussais
(48.1780°N, 1.3980°W)
Time: 04:10:02
(UTC+00:00)

NOSS 3-3 (A) - Pass Details

Date: 09 May 2021
Orbit: 810 x 1402 km, 63.4° (Epoch: 06 June)

Event Time Altitude Azimuth Distance (km) Brightness Sun altitude
Rises 20:58:58 0° 203° (SSW) 3,374 6.6 -12.6°
Reaches altitude 10° 21:01:20 10° 199° (SSW) 2,484 5.9 -12.9°
Maximum altitude 21:06:55 57° 122° (ESE) 1,085 3.9 -13.5°
Drops below altitude 10° 21:13:16 10° 46° (NE) 2,822 6.5 -14.2°
Sets 21:16:07 0° 43° (NE) 3,872 7.2 -14.5°
